Date String (YYYY-MM-DD hh:mm:ss) UTC,Instrument flags,absolute air pressure of the measurement (hPa),sample flow rate (lpm),inlet stack bypass flow (lpm),air temperature of the measurement (°C),ambient temperature measured by the external sensor (°C),aerosol sample conditioner tube jacket temperature (°C),OPC LED temperature (°C),internal box temperature (°C),relative humidity of the measurement (%),span deviation,mass concentration of particles derived from Lorenz-Mie calculation of OPC scattering (μg/m³),mass concentration of particles derived from Lorenz-Mie calculation of OPC scattering (μg/m³),mass concentration of particles derived from Lorenz-Mie calculation of OPC scattering (μg/m³)
DateTimeUTC,F1_M11,P_M11,Q1_M11,Q2_M11,T1_M11,T2_M11,T3_M11,T4_M11,T5_M11,U1_M11,ZSPAN_M11,X2_M11,X0_M11,X1_M11
2024-06-18 19:00:00,SystemResetWarning,0826.4,5.01,000.00,028.2,027.4,000.0,036.7,030.0,011.5,0000.0,0004.94,0033.61,0001.75
2024-06-18 19:01:00,SystemResetWarning,0826.4,5.00,000.00,028.2,027.4,000.0,036.7,030.1,012.0,0000.0,0005.01,0031.15,0001.74
2024-06-18 19:02:00,SystemResetWarning,0826.4,5.00,000.00,028.2,027.4,000.0,036.7,030.1,012.3,0000.0,0004.90,0028.69,0001.71
2024-06-18 19:03:00,SystemResetWarning,0826.4,5.00,000.00,028.2,027.4,000.0,036.8,030.1,011.7,0000.0,0004.90,0028.51,0001.70
2024-06-18 19:04:00,SystemResetWarning,0826.4,5.00,000.00,028.2,027.4,000.0,036.8,030.1,011.3,0000.0,0004.88,0027.83,0001.70
2024-06-18 19:05:00,SystemResetWarning,0826.4,5.00,000.00,028.2,027.4,000.0,036.8,030.1,011.4,0000.0,0004.86,0027.12,0001.70
2024-06-18 19:06:00,SystemResetWarning,0826.4,5.00,000.00,028.2,027.4,000.0,036.8,030.1,011.7,0000.0,0004.83,0027.74,0001.67
2024-06-18 19:07:00,SystemResetWarning,0826.5,4.99,000.00,028.2,027.4,000.0,036.8,030.1,012.0,0000.0,0004.91,0029.01,0001.68
2024-06-18 19:08:00,SystemResetWarning,0826.6,5.00,000.00,028.3,027.4,000.0,036.8,030.1,011.4,0000.0,0004.91,0029.90,0001.69
2024-06-18 19:09:00,SystemResetWarning,0826.6,5.00,000.00,028.2,027.5,000.0,036.8,030.1,011.3,0000.0,0004.91,0029.51,0001.70
2024-06-18 19:10:00,SystemResetWarning,0826.6,5.00,000.00,028.3,027.5,000.0,036.8,030.1,011.6,0000.0,0004.94,0030.64,0001.69
2024-06-18 19:11:00,SystemResetWarning,0826.6,5.02,000.00,028.2,027.5,000.0,036.8,030.1,011.4,0000.0,0004.98,0031.57,0001.68
2024-06-18 19:12:00,SystemResetWarning,0826.6,4.99,000.00,028.3,027.5,000.0,036.8,030.1,010.9,0000.0,0004.92,0030.80,0001.66
2024-06-18 19:13:00,SystemResetWarning,0826.6,4.99,000.00,028.3,027.5,000.0,036.8,030.1,011.4,0000.0,0004.89,0029.21,0001.65
2024-06-18 19:14:00,SystemResetWarning,0826.5,5.01,000.00,028.3,027.5,000.0,036.8,030.1,011.4,0000.0,0004.82,0027.69,0001.65
2024-06-18 19:15:00,SystemResetWarning,0826.4,5.01,000.00,028.3,027.5,000.0,036.8,030.1,011.5,0000.0,0004.84,0026.72,0001.64
2024-06-18 19:16:00,SystemResetWarning,0826.4,5.01,000.00,028.3,027.5,000.0,036.8,030.1,011.3,0000.0,0004.84,0027.19,0001.61
2024-06-18 19:17:00,SystemResetWarning,0826.4,5.01,000.00,028.3,027.5,000.0,036.8,030.1,011.3,0000.0,0004.92,0028.04,0001.60
2024-06-18 19:18:00,SystemResetWarning,0826.5,5.00,000.00,028.3,027.5,000.0,036.8,030.1,011.6,0000.0,0004.88,0027.04,0001.58
2024-06-18 19:19:00,SystemResetWarning,0826.5,4.99,000.00,028.3,027.5,000.0,036.8,030.1,011.5,0000.0,0004.94,0025.78,0001.56
2024-06-18 19:20:00,SystemResetWarning,0826.5,5.00,000.00,028.3,027.5,000.0,036.8,030.1,011.3,0000.0,0004.92,0025.23,0001.55
2024-06-18 19:21:00,SystemResetWarning,0826.5,4.99,000.00,028.3,027.5,000.0,036.8,030.1,011.7,0000.0,0004.88,0023.52,0001.54
2024-06-18 19:22:00,SystemResetWarning,0826.4,5.00,000.00,028.3,027.5,000.0,036.8,030.2,011.7,0000.0,0004.87,0024.53,0001.55
2024-06-18 19:23:00,SystemResetWarning,0826.4,5.00,000.00,028.3,027.5,000.0,036.9,030.1,011.6,0000.0,0004.89,0027.70,0001.57
2024-06-18 19:24:00,SystemResetWarning,0826.4,5.01,000.00,028.3,027.5,000.0,036.9,030.1,011.3,0000.0,0004.93,0029.53,0001.59
2024-06-18 19:25:00,SystemResetWarning,0826.4,5.00,000.00,028.3,027.5,000.0,036.9,030.1,011.4,0000.0,0004.92,0031.49,0001.59
2024-06-18 19:26:00,SystemResetWarning,0826.4,5.00,000.00,028.3,027.5,000.0,036.9,030.1,011.9,0000.0,0004.91,0031.91,0001.59
2024-06-18 19:27:00,SystemResetWarning,0826.4,5.00,000.00,028.3,027.5,000.0,036.9,030.1,012.0,0000.0,0004.93,0031.50,0001.59
2024-06-18 19:28:00,SystemResetWarning,0826.4,4.99,000.00,028.3,027.5,000.0,036.9,030.1,011.7,0000.0,0004.86,0030.11,0001.60
2024-06-18 19:29:00,SystemResetWarning,0826.4,5.00,000.00,028.3,027.5,000.0,036.9,030.1,012.0,0000.0,0004.84,0032.03,0001.59
2024-06-18 19:30:00,SystemResetWarning,0826.4,4.99,000.00,028.3,027.5,000.0,036.8,030.1,011.6,0000.0,0004.76,0033.17,0001.59
2024-06-18 19:31:00,SystemResetWarning,0826.5,5.00,000.00,028.3,027.5,000.0,036.9,030.1,011.6,0000.0,0004.74,0032.66,0001.58
2024-06-18 19:32:00,SystemResetWarning,0826.4,5.00,000.00,028.3,027.5,000.0,036.9,030.1,011.2,0000.0,0004.75,0034.55,0001.57
2024-06-18 19:33:00,SystemResetWarning,0826.4,5.00,000.00,028.3,027.5,000.0,036.9,030.1,011.9,0000.0,0004.80,0035.60,0001.57
2024-06-18 19:34:00,SystemResetWarning,0826.5,5.00,000.00,028.3,027.5,000.0,036.9,030.1,012.0,0000.0,0004.90,0034.48,0001.58
2024-06-18 19:35:00,SystemResetWarning,0826.6,5.00,000.00,028.3,027.5,000.0,036.9,030.2,011.6,0000.0,0005.27,0038.19,0001.62
2024-06-18 19:36:00,SystemResetWarning,0826.6,5.00,000.00,028.3,027.6,000.0,036.9,030.2,011.4,0000.0,0005.33,0037.30,0001.64
2024-06-18 19:37:00,SystemResetWarning,0826.6,5.00,000.00,028.3,027.6,000.0,036.9,030.2,011.9,0000.0,0005.36,0037.23,0001.67
2024-06-18 19:38:00,SystemResetWarning,0826.6,4.99,000.00,028.3,027.6,000.0,036.9,030.2,011.3,0000.0,0005.77,0042.26,0001.75
2024-06-18 19:39:00,SystemResetWarning,0826.6,4.99,000.00,028.3,027.6,000.0,036.9,030.1,011.4,0000.0,0005.94,0045.48,0001.80
2024-06-18 19:40:00,SystemResetWarning,0826.6,4.99,000.00,028.3,027.6,000.0,036.9,030.2,011.2,0000.0,0005.90,0043.28,0001.82
2024-06-18 19:41:00,SystemResetWarning,0826.6,5.01,000.00,028.3,027.6,000.0,036.9,030.2,011.2,0000.0,0005.88,0043.13,0001.81
2024-06-18 19:42:00,SystemResetWarning,0826.6,5.00,000.00,028.3,027.6,000.0,036.9,030.2,011.5,0000.0,0005.87,0043.43,0001.81
2024-06-18 19:43:00,SystemResetWarning,0826.6,5.00,000.00,028.3,027.6,000.0,036.9,030.2,011.5,0000.0,0005.88,0043.00,0001.84
2024-06-18 19:44:00,SystemResetWarning,0826.6,5.00,000.00,028.3,027.6,000.0,036.9,030.2,011.2,0000.0,0005.80,0041.06,0001.84
2024-06-18 19:45:00,SystemResetWarning,0826.6,5.00,000.00,028.3,027.6,000.0,036.9,030.2,011.5,0000.0,0005.65,0040.21,0001.81
2024-06-18 19:46:00,SystemResetWarning,0826.7,5.00,000.00,028.3,027.6,000.0,036.9,030.2,011.5,0000.0,0005.24,0035.51,0001.75
2024-06-18 19:47:00,SystemResetWarning,0826.7,5.00,000.00,028.3,027.6,000.0,036.9,030.2,012.1,0000.0,0005.20,0034.87,0001.72
2024-06-18 19:48:00,SystemResetWarning,0826.7,5.00,000.00,028.4,027.6,000.0,036.9,030.2,011.5,0000.0,0005.17,0036.05,0001.70
2024-06-18 19:49:00,SystemResetWarning,0826.8,5.00,000.00,028.4,027.6,000.0,036.9,030.2,011.3,0000.0,0004.86,0033.76,0001.65
2024-06-18 19:50:00,SystemResetWarning,0826.6,5.01,000.00,028.4,027.6,000.0,036.9,030.2,011.0,0000.0,0004.60,0028.52,0001.59
2024-06-18 19:51:00,SystemResetWarning,0826.6,5.00,000.00,028.4,027.6,000.0,036.9,030.2,011.2,0000.0,0004.69,0030.10,0001.59
2024-06-18 19:52:00,SystemResetWarning,0826.6,4.99,000.00,028.4,027.6,000.0,036.9,030.2,011.7,0000.0,0004.76,0030.27,0001.60
2024-06-18 19:53:00,SystemResetWarning,0826.6,5.00,000.00,028.4,027.6,000.0,036.9,030.2,011.9,0000.0,0004.76,0030.34,0001.60
2024-06-18 19:54:00,SystemResetWarning,0826.6,5.00,000.00,028.4,027.6,000.0,036.9,030.2,011.5,0000.0,0004.75,0028.88,0001.60
2024-06-18 19:55:00,SystemResetWarning,0826.6,5.00,000.00,028.4,027.6,000.0,036.9,030.2,011.3,0000.0,0004.72,0028.05,0001.62
2024-06-18 19:56:00,SystemResetWarning,0826.6,5.00,000.00,028.4,027.6,000.0,036.9,030.2,011.5,0000.0,0004.82,0028.35,0001.65
2024-06-18 19:57:00,SystemResetWarning,0826.6,4.99,000.00,028.4,027.6,000.0,036.9,030.2,011.3,0000.0,0004.87,0028.21,0001.68
2024-06-18 19:58:00,SystemResetWarning,0826.6,5.00,000.00,028.4,027.6,000.0,036.9,030.2,011.7,0000.0,0004.86,0027.23,0001.68
2024-06-18 19:59:00,SystemResetWarning,0826.7,5.00,000.00,028.4,027.6,000.0,036.9,030.2,012.0,0000.0,0004.83,0027.04,0001.71
